Location: Gombori
(14.9797°N, 2.9419°W)
Time: 04:29:16
(UTC+00:00)

Meteor 2-13 Rocket - Pass Details

Date: 04 December 2021
Orbit: 936 x 957 km, 82.5° (Epoch: 19 January)

Event Time Altitude Azimuth Distance (km) Brightness Sun altitude
Rises 04:45:25 0° 185° (S) 3,621 7.7 -23.0°
Reaches altitude 10° 04:47:54 10° 186° (S) 2,675 6.9 -22.4°
Maximum altitude 04:54:02 84° 274° (W) 958 4.3 -21.0°
Drops below altitude 10° 05:00:08 10° 2° (N) 2,664 6.6 -19.6°
Sets 05:02:37 0° 3° (N) 3,606 7.3 -19.1°
